Погода Маслянино

Погода Маслянино : погода сейчас, прогноз погоды и архив. Всё, что Вы хотите узнать о погоде Маслянино!

Хотите узнать прогноз погоды Маслянино? Тогда Вам сюда: Погода Маслянино

Поиск расширенной информации на нашем сайте:

Другие новости

Новости СМИ2

Главная страница сайта

Новости сайта

03.07.2017

Напоминаем, что на нашем специализированном сайте Метеоцентр.Азия вы можете получить высокодетализированные автоматические прогнозы погоды по пунктам России, СНГ и мира в авиационном формате (включающие направление и скорость ветра, видимость, явления погоды, количество и форму облачности, нижнюю и верхнюю границу облачности).

Рекомендуем: Ремонт - Евроремонт офиса, екатеринбург

Погода Маслянино - сегодня

Время (UTC), дата Ветер
(°,м/с) 
Видим.   Явления Облачность Т
(°С)
Тd
(°С)
f(%) Тe
(°С)
Pmin
(гПа)
dP
(гПа)
Po
(мм)
O2
(г/м3)
Тmin Tmax R s Состояние
почвы
03 19.10.17 130 (ЮВ) 4000 м  слаб. ливневой дождь{туман}  10/10 300 м кучево-дожд. 
[Cb calv]
+0.1 +0.1 100 +1  1016.2  1.3  743  299           
06 19.10.17 220 (ЮЗ) 10 км  слаб. ливневой дождь{туман}  10/10 300 м кучево-дожд. 
[Cb calv]
+4.3 +4.6 100 +3  1017.1  1.3  744  295           
09 19.10.17 190 (Ю) 20000 м  {ливн. осадки}  10/10 600 м 
[Sc diur, vesp]
+7.1 +6.6 97 +6  1017.3  0.5  745  291           
12 19.10.17 150 (ЮВ) 20000 м  {ливн. осадки}  10/0 верхняя 
[Ci fib]
+5.4 +5.3 99 +4  1017.8  0.2  745  293    +7.3     
15 19.10.17 120 (ЮВ) 10 км    10/0 средняя 
[Ac und]
+4.2 +4.1 99 +4  1017.2  -0.6  745  295           
18 19.10.17 130 (ЮВ) 10 км    10/0 средняя 
[Ac und]
+5.5 +4 90 +4  1015.2  -1.9  743  293           
21 19.10.17 130 (ЮВ) 10 км    4/0 верхняя 
[Ci fib]
+4.3 +3.1 92 +4  1013.4  -1.8  742  294           
00 20.10.17 140 (ЮВ) 10 км  {ливн. осадки}  10/6 600 м средняя, верхняя 
[Sc diur, vesp|Ac As|Ci fib]
+5.2 +4.1 93 +4  1011.7  -1.6  741  292  +4.2    0.0     
03 20.10.17 190 (Ю) 7-10{10}  10 км  слаб. ливневой дождь  10/10 600 м кучево-дожд. 
[Cb calv]
+5.1 +4.2 94 +2  1010.9  -0.8  740  292           
06 20.10.17 210 (ЮЗ) 6-11{13}  10 км  слаб. ливневой дождь  10/10 600 м кучево-дожд. 
[Cb calv]
+5.5 +4.7 95 +3  1011.8  0.9  741  292           
12 20.10.17 180 (Ю) 4{11}  20000 м  {ливн. осадки}  10/10 600 м 
[Sc]
+6.3 +4.3 87 +5  1012.1  -0.5  741  291    +6.5     
15 20.10.17 200 (Ю) 6{12}  20000 м  {ливн. осадки}  10/10 600 м 
[Sc]
+7.7 +6.4 91 +6  1010  -1.9  740  289           
18 20.10.17 250 (З) 3{16}  20000 м  в посл. час ливневой дождь  10/10 600 м 
[Sc diur, vesp]
+6.6 +4.2 85 +6  1010.6  0.5  740  290           
21 20.10.17 230 (ЮЗ) 20000 м    10/10 600 м 
[Sc]
+5 +4.1 94 +5  1012.5  1.7  741  293           
00 21.10.17 160 (Ю) 20000 м    10/10 600 м 
[Sc]
+3.7 +3.5 99 +5  1012.5  -0.2  741  294  +3.1       
03 21.10.17 240 (ЮЗ) 20000 м  слаб. ливневой дождь  10/10 300 м кучево-дожд. 
[Cb calv]
+6.3 +5.3 93 +6  1011.8  -0.4  741  291  +2.8         
06 21.10.17 200 (Ю) 20000 м  слаб. ливневой дождь  10/10 300 м кучево-дожд. 
[Cb calv]
+5.7 +4.9 95 +5  1011.7  -0.2  741  291           
09 21.10.17 160 (Ю) 20000 м  слаб. ливневой дождь  10/10 300 м кучево-дожд. 
[Cb calv]
+6 +5.6 97 +6  1010.6  -1  740  291           
12 21.10.17 200 (Ю) 20000 м  слаб. ливневой дождь  10/10 300 м кучево-дожд. 
[Cb calv]
+6.1 +5.5 96 +5  1011  0.4  740  291    +6.6  13     
15 21.10.17 230 (ЮЗ) 20000 м  {ливн. осадки}  10/10 600 м 
[Sc]
+6.2 +5.6 96 +6  1011.2  0.2  740  291           
18 21.10.17 210 (ЮЗ) 10 км  слаб. ливневой дождь  10/10 300 м кучево-дожд. 
[Cb calv]
+6.4 +6.2 99 +6  1011.2  740  290           
21 21.10.17 тихо ()   20000 м  {ливн. осадки}  10/10 600 м 
[Sc]
+5.5 +5.5 100 +6  1010.7  -0.6  740  291           
00 22.10.17 190 (Ю) 10 км  слаб. ливневой дождь  10/10 300 м кучево-дожд. 
[Cb calv]
+5.3 +5.3 100 +5  1010.5  -0.2  740  291  +5       
03 22.10.17 тихо ()   10 км  слаб. ливневой дождь  10/10 300 м кучево-дожд. 
[Cb calv]
+5.2 +5.1 99 +5  1010.4  -0.1  740  292  +4.9         
06 22.10.17 290 (З) 10 км  слаб. ливневой дождь  10/10 300 м кучево-дожд. 
[Cb calv]
+5.5 +4.6 94 +5  1010.9  0.5  740  292           
Время (UTC), дата Ветер
(°,м/с) 
Видим.   Явления Облачность Т
(°С)
Тd
(°С)
f(%) Тe
(°С)
Pmin
(гПа)
dP
(гПа)
Po
(мм)
O2
(г/м3)
Тmin Tmax R s Состояние
почвы

Для получения пояснительной информации подведите курсор к названию столбца.

ПОГОДА Маслянино - архив

Всё, что Вы хотите узнать о погоде Маслянино - удобно и подробно!

Выберите нужную дату (начиная с 1 января 2015* года) и нажмите кнопку "Найти".
Будут отображены архивные сводки погоды по пункту Маслянино, начиная с указанной даты.


Отображать данные в формате CSV (для использования в таблицах Excel)


Внимание! Наш архив погоды предназначен исключительно для личного некоммерческого использования в познавательных целях. Если Вам необходимы официальные справки о состоянии погоды (для производственных, юридических, коммерческих и т.п. целей), обращайтесь в органы Росгидромета.

*Примечание: данная дата относится к архиву по метеостанциям СССР (Россия, СНГ, Балтия).
Архив по метеостанциям Зарубежной Европы и Азии (кроме Китая) хранится 10 дней, по другим регионам земного шара (Китай, Африка, Америка, Австралия, Океания) - 1 день.

Маслянино - район местоположения метеостанции


Название, широта, долгота, высота метеостанции:
Маслянино 54.3°ш. 84.2°д. 198 м над ур. моря [Российская Федерация]

Дополнительная информация

В oтличие oт бoльшинства пoгoдных сайтoв мы публикуем пoдрoбную метеoинфoрмацию в детальнoм прoфессиoнальнoм фoрмате.

Характеристики температуры и влажнoсти вoздуха измеряются на высoте 2 м в тени вдали oт зданий и деревьев.
Скoрoсть ветра измеряется на высoте 10 м (на урoвне рoста челoвека скoрoсть ветра ниже в 1.5-2 раза). Если метеoстанция нахoдится в гoрoде или в лесу, тo скoрoсть ветра занижена на 2-4 м/с пo сравнению с oткрытым местoм. Скoрoсть ветра над акватoриями крупных рек и oзёр, а также на вершинах хoлмoв на 2-5 м/с выше, чем в oбычных услoвиях.
Атмoсфернoе давление в разных тoчках местнoсти мoжет значительнo oтличаться oт давления на метеoстанции, в зависимoсти oт услoвий рельефа (при пoдъёме на 10 м давление пoнижается примернo на 1 мм рт.ст.).